• In Uzbekistan
  • List of Countries
  • For 7 days
  • Water Temperature
  • Weather Map
  • Weather Widgets
  • user-avatar
    Login

    Hourly Weather Midlothian

    Today, 11 December, Wednesday

    Time Temperature Precipitation Wind Pressure Humidity
    00:00 +1°C° 0 mm 9 mps 721 mmHg 79%
    01:00 0°C° 0 mm 9 mps 722 mmHg 78%
    02:00 0°C° 0 mm 9 mps 722 mmHg 77%
    03:00 0°C° 0 mm 8 mps 722 mmHg 76%
    04:00 0°C° 0 mm 9 mps 722 mmHg 77%
    05:00 0°C° 0 mm 9 mps 722 mmHg 77%
    06:00 0°C° 0 mm 9 mps 722 mmHg 80%
    07:00 0°C° 0 mm 9 mps 721 mmHg 81%
    08:00 0°C° 0 mm 9 mps 721 mmHg 81%
    09:00 0°C° 0 mm 9 mps 721 mmHg 82%
    10:00 0°C° 0 mm 8 mps 721 mmHg 80%
    11:00 0°C° 0 mm 8 mps 721 mmHg 79%
    12:00 0°C° 0 mm 8 mps 721 mmHg 77%
    13:00 0°C° 0 mm 8 mps 721 mmHg 77%
    14:00 0°C° 0 mm 7 mps 721 mmHg 78%
    15:00 0°C° 0 mm 7 mps 721 mmHg 79%
    16:00 -1°C° 0 mm 7 mps 721 mmHg 79%
    17:00 -1°C° 0 mm 6 mps 721 mmHg 80%
    18:00 -1°C° 0 mm 6 mps 721 mmHg 81%
    19:00 -1°C° 0 mm 6 mps 721 mmHg 81%
    20:00 -1°C° 0 mm 6 mps 721 mmHg 80%
    21:00 -1°C° 0 mm 6 mps 721 mmHg 80%
    22:00 -1°C° 0 mm 6 mps 721 mmHg 81%
    23:00 -1°C° 0 mm 6 mps 721 mmHg 81%

    Tomorrow, 12 December, Thursday

    Time Temperature Precipitation Wind Pressure Humidity
    00:00 -1°C° 0 mm 6 mps 721 mmHg 82%
    01:00 -2°C° 0 mm 6 mps 721 mmHg 83%
    02:00 -2°C° 0 mm 6 mps 720 mmHg 85%
    03:00 -1°C° 0 mm 5 mps 720 mmHg 86%
    04:00 -1°C° 0 mm 5 mps 719 mmHg 86%
    05:00 -1°C° 0 mm 5 mps 719 mmHg 85%
    06:00 -1°C° 0 mm 5 mps 718 mmHg 85%
    07:00 -1°C° 0 mm 4 mps 717 mmHg 87%
    08:00 0°C° 0 mm 3 mps 716 mmHg 89%
    09:00 0°C° 0 mm 3 mps 716 mmHg 91%
    10:00 0°C° 0 mm 3 mps 715 mmHg 90%
    11:00 0°C° 0 mm 4 mps 714 mmHg 88%
    12:00 0°C° 0 mm 4 mps 713 mmHg 87%
    13:00 0°C° 0.3 mm 4 mps 711 mmHg 90%
    14:00 0°C° 0.3 mm 4 mps 710 mmHg 92%
    15:00 0°C° 0.3 mm 4 mps 709 mmHg 95%
    16:00 +1°C° 0.3 mm 3 mps 708 mmHg 96%
    17:00 +1°C° 0.3 mm 3 mps 707 mmHg 96%
    18:00 +2°C° 0.3 mm 2 mps 706 mmHg 96%
    19:00 +2°C° 0.3 mm 2 mps 705 mmHg 96%
    20:00 +3°C° 0.3 mm 1 mps 704 mmHg 96%
    21:00 +4°C° 0.3 mm 1 mps 704 mmHg 96%
    22:00 +4°C° 0.2 mm 1 mps 703 mmHg 96%
    23:00 +4°C° 0.2 mm 1 mps 703 mmHg 96%

    Day after tomorrow, 13 December, Friday

    Time Temperature Precipitation Wind Pressure Humidity
    00:00 +3°C° 0.2 mm 0 mps 703 mmHg 96%
    01:00 +4°C° 0.1 mm 1 mps 703 mmHg 96%
    02:00 +4°C° 0.1 mm 1 mps 703 mmHg 96%
    03:00 +3°C° 0.1 mm 2 mps 703 mmHg 96%
    04:00 +3°C° 0.1 mm 2 mps 703 mmHg 95%
    05:00 +2°C° 0.1 mm 3 mps 704 mmHg 95%
    06:00 +1°C° 0.1 mm 4 mps 704 mmHg 94%
    07:00 +1°C° 0.1 mm 4 mps 705 mmHg 93%
    08:00 +1°C° 0.1 mm 5 mps 706 mmHg 91%
    09:00 +1°C° 0.1 mm 5 mps 706 mmHg 90%
    10:00 +1°C° 0.1 mm 5 mps 707 mmHg 88%
    11:00 +1°C° 0.1 mm 5 mps 707 mmHg 86%
    12:00 +2°C° 0.1 mm 5 mps 708 mmHg 84%
    13:00 +1°C° 0 mm 5 mps 708 mmHg 84%
    14:00 +1°C° 0 mm 5 mps 708 mmHg 84%
    15:00 +1°C° 0 mm 5 mps 709 mmHg 84%
    16:00 0°C° 0 mm 4 mps 709 mmHg 86%
    17:00 0°C° 0 mm 4 mps 709 mmHg 88%
    18:00 0°C° 0 mm 3 mps 709 mmHg 89%
    19:00 -1°C° 0 mm 4 mps 709 mmHg 90%
    20:00 -1°C° 0 mm 4 mps 709 mmHg 91%
    21:00 -1°C° 0 mm 4 mps 709 mmHg 92%
    22:00 -1°C° 0.1 mm 4 mps 709 mmHg 90%
    23:00 0°C° 0.1 mm 5 mps 709 mmHg 88%

    14 December, Saturday

    Time Temperature Precipitation Wind Pressure Humidity
    00:00 0°C° 0.1 mm 5 mps 708 mmHg 86%
    01:00 0°C° 0 mm 5 mps 708 mmHg 88%
    02:00 -1°C° 0 mm 5 mps 707 mmHg 89%
    03:00 -2°C° 0 mm 6 mps 707 mmHg 91%
    04:00 -2°C° 0.3 mm 6 mps 707 mmHg 92%
    05:00 -2°C° 0.3 mm 7 mps 707 mmHg 94%
    06:00 -2°C° 0.3 mm 7 mps 707 mmHg 95%
    07:00 -2°C° 0.1 mm 8 mps 707 mmHg 90%
    08:00 -2°C° 0.1 mm 8 mps 707 mmHg 85%
    09:00 -3°C° 0.1 mm 9 mps 707 mmHg 80%
    10:00 -3°C° 0 mm 9 mps 708 mmHg 78%
    11:00 -3°C° 0 mm 10 mps 708 mmHg 76%
    12:00 -3°C° 0 mm 10 mps 708 mmHg 74%
    13:00 -3°C° 0.1 mm 10 mps 709 mmHg 75%
    14:00 -4°C° 0.1 mm 10 mps 709 mmHg 76%
    15:00 -4°C° 0.1 mm 10 mps 709 mmHg 77%
    16:00 -4°C° 0 mm 10 mps 709 mmHg 76%
    17:00 -4°C° 0 mm 10 mps 709 mmHg 75%
    18:00 -4°C° 0 mm 10 mps 710 mmHg 74%
    19:00 -4°C° 0 mm 10 mps 710 mmHg 73%
    20:00 -4°C° 0 mm 10 mps 710 mmHg 73%
    21:00 -4°C° 0 mm 10 mps 710 mmHg 73%
    22:00 -4°C° 0 mm 9 mps 710 mmHg 74%
    23:00 -5°C° 0 mm 9 mps 710 mmHg 75%

    15 December, Sunday

    Time Temperature Precipitation Wind Pressure Humidity
    00:00 -5°C° 0 mm 8 mps 710 mmHg 76%
    01:00 -5°C° 0 mm 8 mps 710 mmHg 77%
    02:00 -4°C° 0 mm 8 mps 710 mmHg 77%
    03:00 -4°C° 0 mm 8 mps 710 mmHg 78%
    04:00 -3°C° 0 mm 7 mps 711 mmHg 81%
    05:00 -3°C° 0 mm 7 mps 711 mmHg 85%
    06:00 -3°C° 0 mm 7 mps 711 mmHg 88%
    07:00 -3°C° 0 mm 7 mps 712 mmHg 86%
    08:00 -2°C° 0 mm 7 mps 713 mmHg 85%
    09:00 -2°C° 0 mm 7 mps 713 mmHg 83%
    10:00 -2°C° 0 mm 7 mps 714 mmHg 78%
    11:00 -1°C° 0 mm 8 mps 714 mmHg 74%
    12:00 -1°C° 0 mm 8 mps 715 mmHg 69%
    13:00 -1°C° 0.5 mm 8 mps 715 mmHg 77%
    14:00 -2°C° 0.5 mm 8 mps 715 mmHg 86%
    15:00 -2°C° 0.5 mm 7 mps 714 mmHg 94%
    16:00 -2°C° 0.1 mm 7 mps 715 mmHg 89%
    17:00 -2°C° 0.1 mm 6 mps 715 mmHg 84%
    18:00 -2°C° 0.1 mm 6 mps 715 mmHg 79%
    19:00 -1°C° 0 mm 5 mps 715 mmHg 83%
    20:00 -2°C° 0 mm 5 mps 715 mmHg 87%
    21:00 -2°C° 0 mm 5 mps 715 mmHg 90%
    22:00 -1°C° 0.1 mm 5 mps 715 mmHg 89%
    23:00 -1°C° 0.1 mm 5 mps 716 mmHg 88%

    16 December, Monday

    Time Temperature Precipitation Wind Pressure Humidity
    00:00 -1°C° 0.1 mm 6 mps 716 mmHg 87%
    01:00 -1°C° 0 mm 5 mps 716 mmHg 86%
    02:00 -1°C° 0 mm 5 mps 716 mmHg 86%
    03:00 -1°C° 0 mm 5 mps 716 mmHg 86%
    04:00 -1°C° 0 mm 4 mps 716 mmHg 87%
    05:00 -2°C° 0 mm 4 mps 716 mmHg 88%
    06:00 -1°C° 0 mm 3 mps 716 mmHg 89%
    07:00 -1°C° 0.2 mm 3 mps 717 mmHg 91%
    08:00 0°C° 0.2 mm 3 mps 717 mmHg 93%
    09:00 0°C° 0.2 mm 3 mps 718 mmHg 94%
    10:00 -1°C° 0 mm 4 mps 719 mmHg 90%
    11:00 0°C° 0 mm 5 mps 720 mmHg 85%
    12:00 -1°C° 0 mm 6 mps 720 mmHg 81%
    13:00 -1°C° 0 mm 6 mps 721 mmHg 82%
    14:00 -2°C° 0 mm 6 mps 721 mmHg 83%
    15:00 -2°C° 0 mm 6 mps 722 mmHg 84%
    16:00 -2°C° 0 mm 6 mps 722 mmHg 84%
    17:00 -2°C° 0 mm 7 mps 722 mmHg 85%
    18:00 -2°C° 0 mm 7 mps 722 mmHg 85%
    19:00 -2°C° 0 mm 7 mps 722 mmHg 85%
    20:00 -2°C° 0 mm 7 mps 722 mmHg 85%
    21:00 -2°C° 0 mm 7 mps 723 mmHg 84%
    22:00 -2°C° 0 mm 7 mps 723 mmHg 86%
    23:00 -1°C° 0 mm 7 mps 723 mmHg 88%
    Show more